Wind_Speed
58 59 62 65 67 69 70 71 72 72 74 77 80 83 84 85 85 83 78 72 66 61 59 59 61 61 58 53 51 50 48 47 44 47 51 53 55 61 64 65 67 69 69
61 63 64 65 65 66 67 69 72 74 77 79 81 83 82 81 76 68 62 60 60 61 62 56 48 47 45 42 41 43 43 42 39 37 41 43 45 49 53 59 65 67 68
61 62 62 64 64 67 69 70 72 75 78 80 80 79 76 69 63 61 61 62 60 54 49 47 44 43 45 48 50 50 49 48 47 46 45 46 47 50 50 51 54 58 61
59 61 63 65 67 67 70 72 75 77 79 79 76 70 65 61 61 63 61 53 50 47 42 41 44 46 50 51 51 50 49 47 47 48 48 49 51 53 54 53 55 58 56
60 63 65 66 68 70 73 75 77 78 74 69 64 63 62 60 61 55 49 49 45 41 41 44 47 49 48 49 52 53 50 48 47 47 45 46 49 53 55 58 59 59 60
64 67 69 71 73 73 75 77 76 70 64 59 59 59 56 59 50 48 46 43 40 41 45 45 45 45 46 45 42 43 44 44 45 45 44 46 47 49 53 56 58 60 58
68 71 74 76 75 76 77 74 66 61 56 55 56 55 54 47 47 44 42 41 42 43 43 43 43 43 43 43 43 44 44 46 46 44 43 41 41 44 47 48 49 53 54
72 75 77 77 78 76 70 61 58 53 53 52 53 50 44 43 42 41 40 40 39 38 41 41 41 43 45 47 46 40 39 38 37 37 36 34 34 37 36 36 36 39 45
75 76 78 78 73 64 56 54 51 49 48 50 47 41 40 37 39 37 35 36 39 41 38 36 37 44 46 38 34 32 30 30 31 31 31 30 32 29 27 28 28 30 31
77 75 70 62 55 51 47 45 45 44 46 43 36 35 35 35 32 31 34 38 37 35 32 33 39 49 31 27 27 24 23 27 29 28 27 27 28 27 27 32 36 29 32
61 56 52 48 45 41 42 42 43 44 38 34 32 32 33 32 30 32 34 34 34 30 29 31 41 36 28 23 20 22 25 22 20 21 20 23 25 27 28 36 32 34 35
49 45 40 39 39 40 40 42 41 35 31 30 29 30 29 29 33 37 37 33 29 27 26 30 39 30 23 22 22 17 15 14 14 14 17 22 27 27 35 28 23 35 27
37 35 36 36 38 41 42 37 32 29 28 27 30 27 26 32 37 40 39 30 26 23 25 28 36 24 17 15 9 12 8 5 8 18 23 20 22 32 31 27 25 24 36
31 34 34 35 39 41 36 32 29 28 27 28 29 32 36 39 41 38 32 27 22 18 22 27 31 19 15 6 4 14 10 8 13 26 22 27 24 31 29 31 22 26 31
31 31 33 38 40 32 29 27 28 28 27 28 33 38 42 38 36 34 28 24 20 13 18 23 26 14 8 2 4 12 12 11 15 26 22 21 23 33 35 32 31 33 35
29 31 36 39 32 28 23 23 28 27 27 30 37 39 34 32 29 28 25 19 12 7 12 18 22 9 3 12 10 9 10 14 16 29 21 17 20 27 34 36 36 35 33
30 33 38 33 28 24 22 22 19 24 27 33 31 31 26 27 30 29 25 21 12 6 8 11 16 7 6 13 14 14 13 8 23 26 24 23 22 21 33 43 33 29 32
31 36 37 30 25 22 22 19 19 21 28 26 25 23 25 30 29 27 24 23 17 8 6 8 11 7 5 16 13 13 16 11 18 26 27 21 19 16 24 34 40 31 27
32 36 31 27 23 23 19 18 21 26 27 21 19 23 26 25 26 30 26 24 22 11 5 6 7 10 2 10 19 17 12 10 14 26 22 22 21 17 22 28 30 30 29
33 35 29 25 22 21 17 18 22 26 19 19 16 17 21 22 28 29 27 23 25 20 9 7 5 7 1 9 19 18 15 16 20 25 24 22 15 20 20 24 25 29 31
33 32 26 23 21 17 16 18 24 19 18 20 19 15 15 21 26 27 27 25 25 25 17 10 6 6 5 6 17 23 20 17 22 21 16 11 12 19 25 23 24 25 26
33 29 23 21 18 15 15 19 21 15 18 22 22 20 20 19 21 21 24 27 28 26 21 15 10 8 9 8 8 16 24 23 21 25 18 15 18 21 26 28 30 28 26
32 26 23 20 16 13 15 20 15 16 17 19 19 20 20 18 19 20 22 26 28 30 27 24 17 10 11 10 11 11 11 13 16 18 18 18 17 16 18 21 23 28 31
30 24 21 17 12 11 15 18 15 13 16 16 17 19 20 17 20 21 19 23 25 29 31 28 24 16 10 10 9 11 13 15 17 18 18 16 14 14 15 17 21 26 29
27 22 19 14 10 11 16 14 14 12 13 12 15 20 21 18 19 22 20 20 20 22 24 27 26 24 17 12 8 9 10 12 16 18 19 18 13 13 15 16 18 24 28
24 20 17 12 9 11 16 11 13 10 10 9 13 18 19 19 20 20 21 22 23 23 22 23 24 23 24 21 16 14 13 12 13 14 15 13 12 14 16 19 20 21 25
Wind_Direction
297 298 298 298 299 301 301 300 301 302 302 302 302 301 300 299 298 297 297 295 293 291 290 288 287 285 284 281 279 279 278 276 274 266 263 259 254 248 246 246 245 243 239
296 297 299 300 300 301 302 303 303 303 303 303 302 302 302 301 300 299 297 294 292 291 290 288 285 282 281 278 275 273 274 274 271 266 265 261 254 247 245 244 244 242 240
300 300 300 301 302 303 304 304 305 305 304 303 303 304 303 301 299 297 295 294 293 291 288 285 280 280 283 282 281 278 276 274 270 265 261 257 254 254 248 243 242 242 241
301 302 302 302 303 304 305 305 305 304 304 304 303 301 299 297 297 297 298 296 293 291 287 286 285 284 286 286 282 278 275 272 270 267 263 260 257 256 253 248 242 241 238
300 300 301 301 302 303 304 304 305 304 304 303 301 301 297 298 300 300 297 296 294 290 289 289 288 287 287 284 280 278 274 271 268 263 257 257 257 256 254 249 244 239 235
300 301 301 301 301 301 303 304 304 303 303 302 300 303 302 303 302 301 301 298 294 291 292 294 294 293 287 282 277 276 272 273 268 264 259 262 258 252 250 245 242 241 234
300 300 300 300 301 302 303 304 303 303 303 299 303 303 304 302 303 303 301 299 299 299 299 301 302 300 288 282 282 278 276 270 265 263 262 257 253 253 249 248 244 243 237
300 301 301 301 302 302 303 302 302 302 300 303 305 305 302 305 304 305 303 303 304 305 307 306 304 300 300 292 286 278 275 266 269 261 253 255 251 248 247 244 244 247 245
304 303 303 302 302 303 303 303 303 303 303 307 305 303 305 305 305 306 308 308 313 315 308 306 305 311 309 293 279 272 270 266 262 260 260 252 242 232 231 233 210 196 203
305 304 303 304 304 304 305 305 307 307 309 305 305 306 306 308 308 312 313 311 314 313 312 313 316 322 310 299 284 272 269 267 268 262 254 240 219 206 209 202 193 191 202
308 308 308 308 309 308 308 309 310 311 308 307 307 306 310 308 311 314 314 313 314 318 312 320 331 328 311 302 291 284 277 272 260 249 228 212 199 198 199 186 193 193 183
311 313 314 312 312 312 313 315 314 310 309 309 308 310 309 306 313 315 315 310 308 315 312 324 333 328 313 303 291 281 263 253 226 208 200 180 183 187 175 178 192 182 177
315 315 314 315 316 317 318 315 314 314 314 310 310 309 313 318 318 314 311 305 302 309 312 327 341 334 329 309 284 257 188 172 205 171 164 177 167 175 166 173 167 177 177
316 318 318 320 321 320 318 318 319 318 315 313 315 325 326 321 317 316 315 308 300 306 309 333 346 338 342 319 183 183 139 189 158 156 164 154 167 167 166 158 163 173 189
320 322 323 324 323 320 320 318 318 317 320 328 331 327 327 329 328 328 325 312 309 304 310 336 351 344 349 152 172 200 191 169 154 176 164 151 154 170 161 168 168 171 180
324 326 327 327 324 323 321 321 320 320 327 332 334 332 335 338 343 347 348 341 328 310 312 338 352 348 114 134 145 132 145 161 162 175 175 171 159 165 181 179 182 183 182
329 331 331 329 327 327 326 324 319 321 333 338 337 338 349 354 1 359 359 357 352 1 330 336 351 350 169 152 143 141 141 116 163 174 174 159 160 168 183 191 188 193 206
332 334 333 331 333 331 328 325 330 338 342 343 341 357 360 4 3 5 5 10 10 13 5 341 350 356 198 188 177 154 154 126 153 168 173 177 170 178 172 178 192 192 204
334 336 334 335 336 334 329 332 343 345 347 348 3 9 8 17 17 12 14 14 18 23 27 6 345 7 238 189 183 188 199 180 156 166 165 170 179 173 173 178 178 183 180
336 338 336 339 338 333 332 341 347 349 356 355 10 17 14 21 16 15 17 25 29 34 42 48 3 2 13 198 190 185 172 156 152 160 154 156 162 173 171 174 177 188 190
338 337 339 339 338 334 337 348 350 1 1 3 3 358 358 15 13 22 28 33 33 39 49 59 57 16 50 182 196 199 192 181 173 167 172 198 195 188 191 183 181 179 180
339 337 343 341 340 337 347 355 355 4 4 6 19 15 13 19 17 24 26 35 35 37 45 51 62 59 84 98 148 196 208 207 202 202 223 214 193 187 193 198 195 192 186
339 341 346 346 342 342 355 0 3 6 12 34 34 25 25 22 20 26 27 40 39 40 41 43 58 78 107 105 109 120 141 171 184 189 182 173 173 175 182 186 188 194 196
340 342 347 347 344 349 5 7 8 24 32 49 39 26 21 29 29 33 36 41 45 44 43 42 45 70 98 118 112 112 125 138 145 148 150 151 156 168 179 184 182 182 185
340 343 348 349 349 357 12 15 21 32 44 61 43 34 37 40 29 34 43 36 42 45 47 44 44 55 71 91 113 105 112 124 131 139 146 148 152 168 180 180 180 184 184
341 347 351 353 355 9 13 24 21 34 47 66 42 38 46 45 38 40 45 48 49 50 49 52 50 50 58 71 83 87 88 103 124 135 149 162 174 179 187 188 180 177 180
Height
5705 5698 5692 5685 5678 5670 5663 5655 5648 5641 5632 5624 5615 5606 5596 5587 5577 5568 5559 5551 5543 5537 5532 5527 5522 5517 5514 5510 5507 5505 5505 5506 5513 5513 5515 5516 5520 5525 5529 5534 5540 5549 5561
5691 5684 5676 5669 5661 5654 5646 5638 5629 5621 5611 5601 5592 5582 5572 5563 5553 5545 5538 5531 5526 5520 5514 5509 5504 5500 5498 5495 5493 5492 5491 5493 5497 5499 5499 5500 5502 5505 5511 5516 5519 5528 5540
5676 5668 5660 5653 5645 5638 5629 5620 5610 5600 5590 5580 5570 5560 5551 5542 5535 5527 5521 5514 5507 5501 5497 5493 5489 5486 5484 5480 5478 5477 5476 5477 5479 5481 5483 5483 5486 5488 5495 5500 5504 5510 5520
5660 5653 5645 5637 5629 5620 5611 5601 5591 5580 5570 5560 5550 5541 5533 5527 5519 5511 5503 5496 5490 5486 5482 5479 5475 5472 5469 5465 5462 5460 5459 5460 5462 5463 5466 5467 5469 5471 5473 5481 5488 5493 5502
5645 5637 5628 5620 5611 5602 5592 5582 5572 5561 5551 5541 5533 5525 5517 5509 5501 5494 5487 5482 5477 5473 5469 5466 5462 5457 5453 5449 5445 5442 5440 5441 5442 5443 5447 5449 5451 5451 5455 5459 5467 5473 5486
5629 5620 5610 5602 5593 5583 5573 5563 5553 5543 5533 5525 5518 5509 5502 5493 5485 5479 5472 5468 5464 5460 5456 5452 5448 5443 5436 5432 5428 5425 5424 5423 5425 5425 5428 5432 5432 5432 5434 5439 5445 5453 5470
5611 5602 5592 5582 5573 5564 5554 5544 5535 5526 5518 5511 5503 5495 5488 5480 5473 5466 5461 5455 5451 5446 5442 5437 5432 5426 5421 5418 5414 5409 5407 5405 5406 5408 5411 5414 5416 5416 5419 5424 5429 5435 5450
5592 5582 5571 5562 5553 5543 5534 5525 5518 5511 5504 5497 5489 5481 5474 5468 5461 5455 5449 5444 5439 5435 5429 5423 5417 5411 5405 5399 5394 5391 5390 5389 5390 5392 5396 5399 5400 5402 5406 5409 5414 5419 5426
5572 5561 5550 5540 5531 5523 5516 5509 5503 5497 5491 5483 5475 5469 5462 5457 5451 5445 5438 5433 5427 5422 5415 5409 5403 5397 5388 5380 5377 5377 5377 5377 5377 5380 5382 5385 5387 5392 5396 5399 5404 5409 5415
5552 5541 5530 5521 5514 5508 5502 5496 5491 5484 5478 5470 5464 5458 5451 5446 5440 5434 5428 5422 5416 5410 5404 5398 5391 5382 5374 5370 5367 5366 5366 5366 5367 5368 5370 5373 5377 5383 5388 5393 5398 5405 5413
5533 5524 5515 5508 5502 5497 5492 5485 5479 5472 5465 5459 5454 5449 5443 5436 5432 5426 5419 5411 5405 5399 5393 5388 5380 5370 5365 5362 5359 5358 5357 5357 5357 5359 5361 5366 5371 5378 5384 5391 5398 5404 5412
5520 5512 5506 5499 5493 5487 5481 5475 5467 5460 5455 5450 5446 5441 5436 5430 5422 5415 5408 5401 5395 5389 5384 5379 5372 5363 5358 5355 5352 5350 5350 5350 5352 5354 5358 5362 5369 5376 5384 5391 5397 5404 5411
5510 5504 5498 5492 5485 5478 5471 5464 5458 5452 5447 5442 5437 5433 5429 5421 5413 5404 5395 5390 5385 5380 5377 5372 5364 5357 5352 5348 5346 5347 5347 5348 5351 5354 5359 5364 5370 5377 5384 5392 5399 5403 5415
5502 5497 5491 5484 5478 5469 5461 5454 5449 5444 5440 5435 5430 5423 5416 5409 5400 5392 5386 5381 5377 5373 5370 5366 5359 5353 5349 5346 5346 5348 5348 5349 5352 5356 5361 5366 5372 5380 5386 5393 5400 5409 5416
5495 5490 5484 5477 5469 5462 5454 5448 5443 5438 5434 5428 5421 5414 5406 5399 5391 5383 5377 5372 5369 5367 5365 5360 5355 5351 5348 5347 5347 5348 5350 5352 5355 5360 5365 5370 5375 5382 5388 5395 5400 5407 5416
5489 5483 5477 5470 5461 5454 5449 5444 5437 5433 5428 5422 5416 5407 5401 5393 5385 5378 5371 5365 5361 5360 5360 5357 5354 5350 5348 5348 5348 5349 5351 5353 5357 5362 5367 5372 5378 5384 5391 5397 5402 5409 5416
5483 5477 5470 5462 5455 5449 5445 5441 5437 5430 5424 5419 5411 5404 5398 5391 5384 5376 5369 5363 5359 5357 5357 5355 5352 5349 5350 5350 5351 5351 5353 5354 5356 5363 5369 5374 5379 5385 5390 5397 5403 5410 5417
5477 5470 5463 5456 5450 5445 5441 5437 5433 5428 5423 5416 5409 5403 5397 5391 5384 5376 5370 5363 5358 5356 5356 5354 5351 5349 5349 5351 5353 5354 5355 5357 5359 5365 5371 5376 5381 5386 5390 5396 5404 5409 5416
5472 5466 5458 5452 5446 5441 5437 5433 5428 5423 5418 5413 5407 5402 5396 5392 5385 5377 5370 5364 5360 5356 5354 5353 5351 5349 5348 5350 5354 5356 5358 5360 5363 5367 5372 5377 5382 5387 5392 5397 5403 5410 5416
5467 5460 5453 5448 5443 5438 5435 5431 5426 5422 5417 5412 5407 5403 5398 5393 5386 5379 5372 5368 5362 5358 5354 5353 5351 5350 5348 5349 5352 5356 5360 5363 5366 5369 5374 5379 5383 5387 5392 5398 5404 5410 5416
5464 5457 5450 5445 5441 5437 5434 5429 5425 5420 5416 5411 5406 5402 5398 5394 5388 5383 5376 5371 5365 5361 5356 5353 5352 5350 5349 5349 5351 5355 5360 5364 5368 5371 5376 5380 5383 5387 5392 5398 5403 5409 5415
5460 5454 5448 5443 5439 5436 5432 5428 5424 5420 5416 5411 5406 5402 5398 5395 5391 5386 5381 5375 5370 5364 5359 5356 5354 5352 5351 5351 5352 5354 5359 5363 5368 5371 5374 5377 5380 5384 5389 5395 5401 5408 5415
5457 5451 5445 5441 5438 5435 5432 5428 5423 5420 5417 5412 5409 5405 5401 5398 5394 5390 5386 5381 5375 5370 5365 5360 5357 5356 5355 5355 5356 5357 5358 5361 5365 5369 5373 5376 5380 5385 5388 5393 5398 5405 5412
5454 5448 5444 5440 5437 5434 5432 5427 5424 5421 5418 5415 5413 5409 5405 5401 5397 5393 5390 5386 5382 5378 5373 5368 5364 5361 5360 5360 5360 5361 5361 5363 5366 5369 5373 5377 5381 5384 5388 5392 5396 5402 5408
5452 5447 5442 5439 5437 5434 5431 5428 5424 5422 5420 5418 5416 5413 5408 5405 5402 5398 5394 5391 5388 5385 5381 5376 5372 5368 5365 5364 5364 5364 5365 5366 5368 5372 5376 5379 5382 5385 5387 5391 5395 5400 5406
5450 5445 5441 5439 5437 5434 5432 5429 5426 5424 5422 5421 5419 5416 5413 5410 5407 5404 5400 5397 5394 5390 5387 5384 5381 5377 5374 5370 5369 5369 5369 5370 5372 5375 5378 5381 5383 5385 5387 5390 5394 5399 5405